QPF
0.00 0.00 0.00 0.00 0.00 0.00 0.00 0.00 0.00 0.00 0.00 0.00 0.00 0.00 0.00 0.00 0.00 0.00 0.00 0.00 0.00 0.00 0.00 0.00 0.00 0.00 0.00 0.00 0.00 0.00 0.00 0.00 0.00 0.00 0.00 0.00 0.00 0.00 0.00 0.01 0.01 0.01 0.01
0.00 0.00 0.00 0.00 0.00 0.00 0.00 0.00 0.00 0.00 0.00 0.00 0.00 0.00 0.00 0.00 0.00 0.00 0.00 0.00 0.00 0.00 0.00 0.00 0.00 0.00 0.00 0.00 0.00 0.00 0.00 0.00 0.00 0.00 0.00 0.00 0.00 0.00 0.00 0.00 0.01 0.01 0.01
0.00 0.00 0.00 0.00 0.00 0.00 0.00 0.00 0.00 0.00 0.00 0.00 0.00 0.00 0.00 0.00 0.00 0.00 0.00 0.00 0.00 0.00 0.00 0.00 0.00 0.00 0.00 0.00 0.00 0.00 0.00 0.00 0.00 0.00 0.00 0.00 0.00 0.00 0.00 0.00 0.01 0.01 0.01
0.00 0.00 0.00 0.00 0.00 0.00 0.00 0.00 0.00 0.00 0.00 0.00 0.00 0.00 0.00 0.00 0.00 0.00 0.00 0.00 0.00 0.00 0.00 0.00 0.00 0.00 0.00 0.00 0.00 0.00 0.00 0.00 0.00 0.00 0.00 0.00 0.00 0.00 0.00 0.00 0.01 0.01 0.01
0.00 0.00 0.00 0.00 0.00 0.00 0.00 0.00 0.00 0.00 0.00 0.00 0.00 0.00 0.00 0.00 0.00 0.00 0.00 0.00 0.00 0.00 0.00 0.00 0.00 0.00 0.00 0.00 0.00 0.00 0.00 0.00 0.00 0.00 0.00 0.00 0.00 0.00 0.00 0.01 0.01 0.01 0.01
0.00 0.00 0.00 0.00 0.00 0.00 0.00 0.00 0.00 0.00 0.00 0.00 0.00 0.00 0.00 0.00 0.00 0.00 0.00 0.00 0.00 0.00 0.00 0.00 0.00 0.00 0.00 0.00 0.00 0.00 0.00 0.00 0.00 0.00 0.00 0.00 0.00 0.00 0.01 0.01 0.01 0.01 0.01
0.00 0.00 0.00 0.00 0.00 0.00 0.00 0.00 0.00 0.00 0.00 0.00 0.00 0.00 0.00 0.00 0.00 0.00 0.00 0.00 0.00 0.00 0.00 0.00 0.00 0.00 0.00 0.00 0.00 0.00 0.00 0.00 0.00 0.00 0.00 0.00 0.00 0.00 0.01 0.01 0.01 0.01 0.01
0.00 0.00 0.00 0.00 0.00 0.00 0.00 0.00 0.00 0.00 0.00 0.00 0.00 0.00 0.00 0.00 0.00 0.00 0.00 0.00 0.00 0.00 0.00 0.00 0.00 0.00 0.00 0.00 0.00 0.00 0.00 0.00 0.00 0.00 0.00 0.00 0.00 0.00 0.01 0.01 0.01 0.01 0.01
0.00 0.00 0.00 0.00 0.00 0.00 0.00 0.00 0.00 0.00 0.00 0.00 0.00 0.00 0.00 0.00 0.00 0.00 0.00 0.00 0.00 0.00 0.00 0.00 0.00 0.00 0.00 0.00 0.00 0.00 0.00 0.00 0.00 0.00 0.00 0.00 0.00 0.00 0.01 0.01 0.01 0.01 0.01
0.00 0.00 0.00 0.00 0.00 0.00 0.00 0.00 0.00 0.00 0.00 0.00 0.00 0.00 0.00 0.00 0.00 0.00 0.00 0.00 0.00 0.00 0.00 0.00 0.00 0.00 0.00 0.00 0.00 0.00 0.00 0.00 0.00 0.00 0.00 0.00 0.00 0.00 0.01 0.01 0.01 0.01 0.01
0.00 0.00 0.00 0.00 0.00 0.00 0.00 0.00 0.00 0.00 0.00 0.00 0.00 0.00 0.00 0.00 0.00 0.00 0.00 0.00 0.00 0.00 0.00 0.00 0.00 0.00 0.00 0.00 0.00 0.00 0.00 0.00 0.00 0.00 0.00 0.00 0.00 0.00 0.01 0.01 0.01 0.01 0.01
0.00 0.00 0.00 0.00 0.00 0.00 0.00 0.00 0.00 0.00 0.00 0.00 0.00 0.00 0.00 0.00 0.00 0.00 0.00 0.00 0.00 0.00 0.00 0.00 0.00 0.00 0.00 0.00 0.00 0.00 0.00 0.00 0.00 0.00 0.00 0.00 0.00 0.00 0.00 0.01 0.01 0.01 0.01
0.00 0.00 0.00 0.01 0.01 0.01 0.00 0.00 0.00 0.00 0.00 0.00 0.00 0.00 0.00 0.00 0.00 0.00 0.00 0.00 0.00 0.00 0.00 0.00 0.00 0.00 0.00 0.00 0.00 0.00 0.00 0.00 0.00 0.00 0.00 0.00 0.00 0.00 0.00 0.00 0.01 0.01 0.01
0.01 0.01 0.01 0.01 0.01 0.01 0.00 0.00 0.00 0.00 0.00 0.00 0.00 0.00 0.00 0.00 0.00 0.00 0.00 0.00 0.00 0.00 0.00 0.00 0.00 0.00 0.00 0.00 0.00 0.00 0.00 0.00 0.00 0.00 0.00 0.00 0.00 0.00 0.00 0.01 0.01 0.01 0.01
0.01 0.01 0.01 0.01 0.01 0.00 0.00 0.00 0.00 0.00 0.00 0.00 0.00 0.00 0.00 0.00 0.00 0.00 0.00 0.00 0.00 0.00 0.00 0.00 0.00 0.00 0.00 0.00 0.00 0.00 0.00 0.00 0.00 0.00 0.00 0.00 0.00 0.00 0.00 0.01 0.01 0.01 0.01
0.01 0.01 0.01 0.01 0.00 0.00 0.00 0.00 0.00 0.00 0.00 0.00 0.00 0.00 0.00 0.00 0.00 0.00 0.00 0.00 0.00 0.00 0.00 0.00 0.00 0.00 0.00 0.00 0.00 0.00 0.00 0.00 0.00 0.00 0.00 0.00 0.00 0.00 0.01 0.01 0.01 0.01 0.01
0.01 0.01 0.01 0.00 0.00 0.00 0.00 0.00 0.00 0.00 0.00 0.00 0.00 0.00 0.00 0.00 0.00 0.00 0.00 0.00 0.00 0.00 0.00 0.00 0.00 0.00 0.00 0.00 0.00 0.00 0.00 0.00 0.00 0.00 0.00 0.00 0.00 0.01 0.01 0.01 0.01 0.01 0.02
0.01 0.01 0.01 0.00 0.00 0.00 0.00 0.00 0.00 0.00 0.00 0.00 0.00 0.00 0.00 0.00 0.00 0.00 0.00 0.00 0.00 0.00 0.00 0.00 0.00 0.00 0.00 0.00 0.00 0.00 0.00 0.00 0.00 0.00 0.00 0.00 0.00 0.01 0.01 0.01 0.01 0.01 0.02
0.01 0.00 0.01 0.00 0.00 0.00 0.00 0.00 0.00 0.00 0.00 0.00 0.00 0.00 0.00 0.00 0.00 0.00 0.00 0.00 0.00 0.00 0.00 0.00 0.00 0.00 0.00 0.00 0.00 0.00 0.00 0.00 0.00 0.00 0.00 0.00 0.00 0.00 0.01 0.01 0.01 0.01 0.01
0.01 0.01 0.00 0.00 0.00 0.00 0.00 0.00 0.00 0.00 0.00 0.00 0.00 0.00 0.00 0.00 0.00 0.00 0.00 0.00 0.00 0.00 0.00 0.00 0.00 0.00 0.00 0.00 0.00 0.00 0.00 0.00 0.00 0.00 0.00 0.00 0.00 0.00 0.00 0.00 0.01 0.00 0.00
0.00 0.00 0.00 0.00 0.00 0.00 0.00 0.00 0.00 0.00 0.00 0.00 0.00 0.00 0.00 0.00 0.00 0.00 0.00 0.00 0.00 0.00 0.00 0.00 0.00 0.00 0.00 0.00 0.00 0.00 0.00 0.00 0.00 0.00 0.00 0.00 0.00 0.00 0.00 0.00 0.00 0.00 0.00
0.00 0.00 0.00 0.00 0.00 0.00 0.00 0.00 0.00 0.00 0.00 0.00 0.00 0.00 0.00 0.00 0.00 0.00 0.00 0.00 0.00 0.00 0.00 0.00 0.00 0.00 0.00 0.00 0.00 0.00 0.00 0.01 0.00 0.00 0.00 0.00 0.00 0.00 0.00 0.00 0.00 0.00 0.01
0.00 0.00 0.00 0.00 0.00 0.00 0.00 0.00 0.00 0.00 0.00 0.00 0.00 0.00 0.00 0.00 0.00 0.00 0.00 0.00 0.00 0.00 0.00 0.00 0.00 0.00 0.00 0.00 0.01 0.01 0.01 0.01 0.01 0.01 0.01 0.01 0.00 0.00 0.00 0.00 0.00 0.00 0.01
0.00 0.00 0.00 0.00 0.00 0.00 0.00 0.00 0.00 0.00 0.00 0.00 0.00 0.00 0.00 0.00 0.00 0.00 0.00 0.00 0.00 0.00 0.00 0.00 0.00 0.00 0.00 0.01 0.01 0.02 0.03 0.03 0.02 0.01 0.01 0.02 0.00 0.00 0.00 0.00 0.00 0.00 0.01
0.00 0.00 0.00 0.00 0.00 0.00 0.00 0.00 0.00 0.00 0.00 0.00 0.00 0.00 0.00 0.00 0.00 0.00 0.00 0.00 0.00 0.00 0.00 0.00 0.01 0.01 0.01 0.01 0.02 0.02 0.02 0.02 0.02 0.01 0.01 0.01 0.00 0.00 0.00 0.00 0.00 0.00 0.00
0.00 0.00 0.00 0.00 0.00 0.00 0.00 0.00 0.00 0.00 0.00 0.00 0.00 0.00 0.00 0.00 0.00 0.00 0.00 0.00 0.00 0.00 0.00 0.00 0.00 0.00 0.00 0.00 0.00 0.01 0.01 0.02 0.02 0.01 0.00 0.01 0.00 0.01 0.01 0.00 0.00 0.00 0.00
MSLP
1020.09 1020.37 1020.55 1020.69 1020.80 1020.92 1021.07 1021.26 1021.47 1021.69 1021.88 1022.02 1022.10 1022.13 1022.09 1022.02 1021.94 1021.85 1021.78 1021.72 1021.67 1021.63 1021.59 1021.54 1021.49 1021.42 1021.35 1021.27 1021.19 1021.09 1020.98 1020.85 1020.71 1020.55 1020.38 1020.19 1020.00 1019.80 1019.60 1019.38 1019.15 1018.90 1018.65
1019.88 1020.18 1020.40 1020.56 1020.70 1020.86 1021.04 1021.27 1021.52 1021.78 1022.01 1022.20 1022.32 1022.37 1022.36 1022.30 1022.21 1022.11 1022.02 1021.95 1021.90 1021.86 1021.83 1021.80 1021.76 1021.70 1021.63 1021.54 1021.44 1021.32 1021.19 1021.05 1020.90 1020.74 1020.57 1020.40 1020.21 1020.02 1019.81 1019.58 1019.34 1019.08 1018.82
1019.54 1019.88 1020.15 1020.37 1020.56 1020.77 1021.01 1021.28 1021.58 1021.89 1022.17 1022.40 1022.57 1022.65 1022.67 1022.63 1022.54 1022.44 1022.34 1022.25 1022.19 1022.14 1022.10 1022.07 1022.02 1021.96 1021.88 1021.78 1021.66 1021.52 1021.37 1021.21 1021.05 1020.89 1020.72 1020.55 1020.37 1020.17 1019.96 1019.74 1019.49 1019.24 1018.98
1019.12 1019.51 1019.84 1020.13 1020.40 1020.68 1020.98 1021.31 1021.66 1022.01 1022.33 1022.61 1022.82 1022.95 1023.00 1022.98 1022.92 1022.82 1022.71 1022.62 1022.54 1022.48 1022.42 1022.38 1022.32 1022.25 1022.15 1022.03 1021.89 1021.72 1021.55 1021.37 1021.20 1021.02 1020.85 1020.68 1020.49 1020.30 1020.09 1019.86 1019.62 1019.37 1019.13
1018.63 1019.08 1019.48 1019.85 1020.21 1020.57 1020.95 1021.33 1021.73 1022.11 1022.48 1022.79 1023.04 1023.21 1023.31 1023.33 1023.29 1023.21 1023.12 1023.02 1022.94 1022.86 1022.80 1022.74 1022.67 1022.58 1022.46 1022.32 1022.16 1021.97 1021.77 1021.57 1021.37 1021.18 1020.99 1020.80 1020.61 1020.41 1020.19 1019.97 1019.73 1019.50 1019.27
1018.12 1018.61 1019.08 1019.54 1019.98 1020.42 1020.86 1021.30 1021.74 1022.16 1022.55 1022.90 1023.19 1023.40 1023.54 1023.61 1023.62 1023.58 1023.51 1023.44 1023.36 1023.29 1023.22 1023.14 1023.06 1022.96 1022.83 1022.67 1022.48 1022.27 1022.05 1021.82 1021.60 1021.38 1021.17 1020.96 1020.75 1020.54 1020.31 1020.08 1019.85 1019.63 1019.42
1017.57 1018.09 1018.63 1019.16 1019.68 1020.19 1020.70 1021.19 1021.66 1022.11 1022.53 1022.90 1023.22 1023.48 1023.67 1023.80 1023.86 1023.87 1023.85 1023.81 1023.75 1023.69 1023.63 1023.56 1023.47 1023.36 1023.22 1023.05 1022.85 1022.62 1022.38 1022.13 1021.88 1021.64 1021.40 1021.16 1020.93 1020.69 1020.46 1020.22 1019.99 1019.77 1019.57
1016.98 1017.53 1018.10 1018.69 1019.29 1019.86 1020.42 1020.96 1021.47 1021.94 1022.38 1022.78 1023.14 1023.44 1023.68 1023.87 1024.00 1024.07 1024.11 1024.11 1024.09 1024.05 1024.00 1023.94 1023.86 1023.75 1023.61 1023.43 1023.22 1022.99 1022.73 1022.46 1022.19 1021.92 1021.65 1021.39 1021.14 1020.89 1020.64 1020.39 1020.15 1019.93 1019.73
1016.33 1016.91 1017.52 1018.15 1018.80 1019.43 1020.04 1020.61 1021.15 1021.65 1022.12 1022.54 1022.93 1023.28 1023.57 1023.82 1024.01 1024.16 1024.25 1024.30 1024.32 1024.31 1024.29 1024.24 1024.16 1024.06 1023.92 1023.75 1023.55 1023.31 1023.05 1022.77 1022.49 1022.20 1021.91 1021.63 1021.36 1021.09 1020.82 1020.57 1020.32 1020.09 1019.88
1015.65 1016.24 1016.88 1017.55 1018.24 1018.92 1019.57 1020.18 1020.75 1021.28 1021.76 1022.22 1022.64 1023.03 1023.37 1023.68 1023.93 1024.13 1024.28 1024.38 1024.44 1024.46 1024.45 1024.42 1024.36 1024.26 1024.14 1023.98 1023.78 1023.55 1023.30 1023.02 1022.73 1022.43 1022.14 1021.85 1021.56 1021.28 1021.00 1020.73 1020.48 1020.23 1020.01
1014.93 1015.55 1016.22 1016.93 1017.65 1018.37 1019.06 1019.70 1020.30 1020.85 1021.36 1021.85 1022.30 1022.72 1023.12 1023.47 1023.77 1024.02 1024.21 1024.35 1024.44 1024.49 1024.50 1024.48 1024.43 1024.34 1024.23 1024.08 1023.90 1023.69 1023.44 1023.17 1022.89 1022.59 1022.30 1022.00 1021.71 1021.42 1021.14 1020.86 1020.59 1020.33 1020.08
1014.22 1014.88 1015.58 1016.33 1017.09 1017.84 1018.55 1019.22 1019.85 1020.42 1020.96 1021.46 1021.94 1022.40 1022.83 1023.22 1023.57 1023.85 1024.08 1024.25 1024.36 1024.43 1024.45 1024.44 1024.40 1024.32 1024.22 1024.08 1023.91 1023.71 1023.48 1023.22 1022.95 1022.66 1022.37 1022.08 1021.79 1021.50 1021.21 1020.93 1020.65 1020.37 1020.09
1013.55 1014.25 1015.00 1015.78 1016.57 1017.34 1018.08 1018.77 1019.41 1020.00 1020.56 1021.08 1021.59 1022.07 1022.53 1022.95 1023.33 1023.65 1023.90 1024.09 1024.23 1024.31 1024.34 1024.34 1024.30 1024.23 1024.13 1024.00 1023.84 1023.65 1023.42 1023.18 1022.91 1022.64 1022.36 1022.07 1021.79 1021.50 1021.21 1020.92 1020.63 1020.33 1020.02
1012.94 1013.70 1014.49 1015.29 1016.10 1016.89 1017.64 1018.34 1018.99 1019.60 1020.16 1020.71 1021.23 1021.74 1022.22 1022.67 1023.07 1023.41 1023.69 1023.91 1024.06 1024.16 1024.21 1024.21 1024.17 1024.11 1024.01 1023.88 1023.72 1023.52 1023.30 1023.06 1022.80 1022.53 1022.26 1021.98 1021.70 1021.42 1021.13 1020.84 1020.53 1020.21 1019.87
1012.41 1013.21 1014.04 1014.86 1015.68 1016.47 1017.21 1017.91 1018.57 1019.17 1019.75 1020.31 1020.85 1021.37 1021.88 1022.35 1022.78 1023.15 1023.46 1023.70 1023.88 1024.00 1024.06 1024.07 1024.05 1023.98 1023.88 1023.74 1023.56 1023.36 1023.13 1022.89 1022.63 1022.36 1022.09 1021.82 1021.55 1021.27 1020.98 1020.67 1020.35 1020.01 1019.65
1011.94 1012.78 1013.61 1014.44 1015.25 1016.03 1016.76 1017.45 1018.10 1018.71 1019.29 1019.86 1020.41 1020.95 1021.48 1021.97 1022.43 1022.84 1023.18 1023.45 1023.66 1023.81 1023.90 1023.93 1023.91 1023.85 1023.73 1023.58 1023.39 1023.17 1022.93 1022.67 1022.40 1022.13 1021.86 1021.59 1021.32 1021.04 1020.75 1020.44 1020.10 1019.74 1019.35
1011.52 1012.36 1013.19 1014.00 1014.79 1015.53 1016.25 1016.92 1017.56 1018.16 1018.75 1019.33 1019.90 1020.46 1021.01 1021.53 1022.01 1022.44 1022.82 1023.13 1023.38 1023.57 1023.69 1023.74 1023.74 1023.68 1023.56 1023.39 1023.19 1022.94 1022.68 1022.40 1022.12 1021.84 1021.57 1021.30 1021.03 1020.76 1020.46 1020.14 1019.78 1019.40 1019.00
1011.12 1011.93 1012.73 1013.51 1014.25 1014.97 1015.65 1016.31 1016.94 1017.55 1018.14 1018.73 1019.32 1019.89 1020.45 1020.99 1021.49 1021.95 1022.36 1022.71 1023.00 1023.22 1023.38 1023.47 1023.48 1023.43 1023.31 1023.13 1022.91 1022.65 1022.36 1022.07 1021.77 1021.49 1021.22 1020.95 1020.69 1020.41 1020.11 1019.77 1019.41 1019.01 1018.59
1010.71 1011.48 1012.23 1012.96 1013.66 1014.34 1015.00 1015.64 1016.26 1016.88 1017.48 1018.08 1018.68 1019.26 1019.82 1020.37 1020.88 1021.35 1021.78 1022.16 1022.48 1022.74 1022.93 1023.05 1023.09 1023.05 1022.94 1022.77 1022.53 1022.25 1021.96 1021.65 1021.35 1021.07 1020.80 1020.54 1020.28 1020.00 1019.70 1019.36 1018.98 1018.57 1018.13
1010.31 1011.02 1011.71 1012.38 1013.04 1013.69 1014.32 1014.95 1015.58 1016.20 1016.81 1017.41 1018.01 1018.58 1019.14 1019.67 1020.17 1020.64 1021.07 1021.46 1021.80 1022.09 1022.32 1022.47 1022.54 1022.52 1022.43 1022.25 1022.02 1021.75 1021.45 1021.14 1020.85 1020.57 1020.31 1020.06 1019.81 1019.54 1019.24 1018.89 1018.51 1018.08 1017.63
1009.93 1010.58 1011.21 1011.83 1012.45 1013.06 1013.69 1014.31 1014.94 1015.56 1016.17 1016.77 1017.35 1017.90 1018.42 1018.92 1019.39 1019.83 1020.24 1020.63 1020.98 1021.28 1021.53 1021.71 1021.81 1021.83 1021.76 1021.60 1021.39 1021.12 1020.84 1020.54 1020.26 1020.00 1019.75 1019.52 1019.28 1019.02 1018.73 1018.39 1018.00 1017.57 1017.10
1009.61 1010.20 1010.78 1011.36 1011.94 1012.53 1013.14 1013.76 1014.38 1014.99 1015.59 1016.17 1016.72 1017.23 1017.70 1018.14 1018.56 1018.95 1019.33 1019.69 1020.03 1020.34 1020.61 1020.81 1020.94 1020.99 1020.95 1020.83 1020.64 1020.40 1020.14 1019.87 1019.61 1019.37 1019.14 1018.93 1018.71 1018.47 1018.18 1017.85 1017.47 1017.03 1016.57
1009.37 1009.93 1010.47 1011.01 1011.56 1012.13 1012.72 1013.32 1013.92 1014.51 1015.09 1015.63 1016.12 1016.58 1016.99 1017.36 1017.71 1018.05 1018.37 1018.70 1019.02 1019.32 1019.60 1019.83 1019.99 1020.07 1020.06 1019.98 1019.83 1019.62 1019.39 1019.15 1018.91 1018.70 1018.50 1018.31 1018.11 1017.89 1017.62 1017.31 1016.93 1016.51 1016.05
1009.25 1009.78 1010.29 1010.81 1011.33 1011.86 1012.42 1012.99 1013.55 1014.11 1014.64 1015.13 1015.57 1015.96 1016.30 1016.60 1016.88 1017.16 1017.43 1017.72 1018.01 1018.31 1018.58 1018.83 1019.01 1019.12 1019.16 1019.11 1019.00 1018.83 1018.63 1018.42 1018.21 1018.03 1017.85 1017.69 1017.51 1017.31 1017.07 1016.77 1016.41 1016.01 1015.57
1009.24 1009.76 1010.25 1010.73 1011.21 1011.71 1012.22 1012.73 1013.25 1013.75 1014.22 1014.65 1015.03 1015.36 1015.64 1015.89 1016.11 1016.33 1016.56 1016.81 1017.09 1017.37 1017.64 1017.89 1018.09 1018.23 1018.29 1018.27 1018.19 1018.06 1017.89 1017.72 1017.54 1017.38 1017.23 1017.09 1016.93 1016.76 1016.54 1016.27 1015.94 1015.57 1015.16
1009.32 1009.83 1010.30 1010.75 1011.18 1011.62 1012.06 1012.52 1012.97 1013.40 1013.81 1014.19 1014.52 1014.80 1015.04 1015.25 1015.44 1015.63 1015.83 1016.06 1016.30 1016.57 1016.83 1017.08 1017.28 1017.43 1017.51 1017.51 1017.46 1017.35 1017.21 1017.06 1016.92 1016.78 1016.65 1016.53 1016.40 1016.25 1016.06 1015.82 1015.53 1015.18 1014.80
Thickness
5661 5658 5654 5651 5648 5645 5641 5638 5635 5633 5630 5628 5625 5622 5620 5617 5615 5613 5611 5609 5607 5605 5603 5601 5599 5597 5595 5593 5591 5589 5587 5585 5584 5583 5582 5581 5581 5581 5581 5581 5582 5582 5583
5658 5654 5650 5646 5643 5640 5636 5633 5629 5626 5623 5621 5618 5615 5612 5610 5608 5606 5603 5601 5598 5596 5594 5591 5589 5587 5585 5583 5581 5579 5577 5575 5574 5573 5572 5571 5571 5570 5570 5571 5571 5572 5572
5654 5650 5645 5641 5638 5635 5631 5627 5623 5620 5616 5613 5610 5608 5605 5603 5600 5598 5595 5592 5589 5586 5584 5581 5579 5577 5575 5573 5571 5569 5567 5565 5564 5563 5562 5561 5560 5560 5560 5560 5560 5561 5562
5650 5645 5641 5637 5633 5629 5625 5621 5617 5612 5609 5605 5602 5600 5597 5595 5593 5590 5587 5584 5580 5577 5574 5571 5569 5566 5564 5562 5561 5559 5557 5555 5554 5553 5552 5551 5550 5549 5549 5549 5550 5550 5551
5646 5642 5637 5633 5628 5624 5619 5615 5610 5606 5601 5597 5594 5591 5589 5586 5584 5581 5578 5575 5571 5568 5564 5561 5558 5556 5553 5552 5550 5548 5547 5545 5544 5543 5542 5541 5540 5539 5539 5539 5539 5539 5540
5643 5638 5633 5628 5623 5618 5613 5609 5604 5598 5594 5590 5587 5583 5579 5577 5575 5572 5569 5565 5562 5558 5555 5552 5549 5546 5543 5541 5539 5538 5537 5536 5534 5533 5532 5531 5530 5529 5529 5529 5529 5529 5529
5640 5635 5629 5624 5619 5614 5609 5604 5598 5592 5586 5582 5578 5573 5570 5567 5565 5562 5559 5556 5553 5549 5546 5543 5539 5536 5533 5531 5529 5527 5526 5525 5524 5523 5522 5521 5520 5519 5519 5519 5519 5519 5519
5637 5632 5626 5620 5615 5609 5603 5598 5592 5585 5579 5574 5570 5565 5560 5558 5556 5553 5550 5547 5543 5540 5537 5533 5530 5527 5524 5522 5519 5517 5515 5514 5513 5513 5512 5510 5509 5509 5509 5509 5508 5508 5508
5634 5629 5623 5617 5611 5605 5599 5593 5588 5582 5573 5566 5563 5558 5552 5550 5545 5544 5541 5537 5534 5531 5527 5524 5521 5518 5515 5512 5509 5507 5505 5503 5503 5502 5501 5500 5499 5499 5499 5498 5498 5498 5498
5631 5626 5620 5614 5607 5601 5595 5589 5583 5577 5570 5561 5554 5550 5546 5541 5537 5534 5532 5528 5525 5522 5519 5516 5512 5509 5506 5503 5500 5497 5495 5493 5492 5491 5490 5489 5488 5488 5488 5487 5487 5487 5486
5627 5622 5616 5610 5603 5597 5591 5584 5578 5572 5566 5558 5551 5544 5537 5532 5528 5524 5522 5519 5516 5513 5510 5507 5504 5500 5497 5494 5490 5487 5485 5483 5481 5480 5479 5478 5477 5476 5475 5475 5474 5474 5473
5623 5617 5612 5606 5600 5593 5587 5580 5573 5567 5561 5554 5547 5541 5535 5528 5521 5515 5511 5507 5505 5504 5502 5499 5495 5491 5488 5484 5480 5477 5475 5472 5470 5469 5467 5466 5464 5463 5462 5462 5461 5460 5460
5619 5613 5608 5602 5596 5589 5583 5576 5568 5562 5556 5549 5543 5536 5531 5525 5519 5511 5505 5499 5494 5493 5492 5490 5487 5482 5478 5474 5470 5467 5464 5461 5459 5457 5455 5453 5452 5450 5449 5448 5446 5445 5444
5619 5612 5605 5598 5592 5585 5578 5571 5563 5557 5550 5544 5538 5531 5524 5519 5513 5507 5499 5491 5486 5482 5480 5480 5477 5473 5469 5464 5460 5456 5453 5450 5448 5445 5443 5441 5438 5436 5434 5432 5430 5428 5426
5615 5608 5601 5594 5587 5580 5573 5566 5559 5552 5545 5538 5531 5525 5518 5512 5506 5500 5493 5486 5478 5474 5473 5471 5466 5464 5459 5454 5449 5445 5442 5438 5435 5432 5430 5427 5424 5421 5418 5415 5413 5410 5408
5611 5603 5596 5589 5582 5575 5568 5561 5554 5546 5539 5532 5525 5518 5512 5505 5499 5492 5486 5479 5472 5465 5461 5460 5456 5453 5448 5443 5438 5434 5430 5426 5422 5418 5415 5411 5408 5405 5402 5398 5395 5393 5390
5606 5598 5592 5584 5577 5570 5562 5555 5548 5540 5533 5525 5518 5512 5505 5499 5492 5485 5478 5471 5464 5457 5453 5453 5447 5443 5438 5432 5428 5423 5417 5412 5408 5403 5399 5395 5391 5388 5385 5382 5378 5375 5372
5601 5594 5587 5580 5573 5565 5558 5551 5543 5535 5528 5520 5513 5506 5499 5492 5485 5478 5470 5463 5457 5450 5443 5441 5438 5432 5427 5422 5417 5411 5405 5399 5393 5388 5383 5379 5375 5371 5368 5365 5361 5358 5354
5594 5587 5581 5574 5568 5561 5553 5546 5539 5531 5524 5516 5509 5501 5493 5485 5478 5471 5464 5456 5449 5443 5435 5429 5426 5421 5415 5409 5403 5398 5392 5385 5379 5373 5367 5362 5358 5354 5351 5347 5344 5340 5336
5588 5581 5575 5569 5563 5556 5548 5541 5533 5525 5518 5510 5503 5495 5488 5480 5473 5465 5457 5449 5442 5434 5426 5418 5414 5409 5403 5397 5388 5383 5379 5372 5366 5359 5352 5346 5341 5337 5333 5330 5327 5323 5319
5582 5575 5569 5562 5556 5549 5543 5535 5527 5519 5511 5503 5495 5488 5482 5475 5468 5460 5452 5443 5434 5426 5417 5409 5404 5398 5391 5383 5375 5369 5364 5360 5353 5345 5339 5332 5325 5321 5316 5312 5309 5306 5304
5574 5567 5562 5556 5549 5544 5538 5530 5522 5513 5505 5497 5489 5481 5474 5467 5460 5454 5446 5439 5429 5419 5409 5401 5394 5386 5380 5371 5364 5356 5349 5344 5341 5335 5325 5320 5312 5307 5302 5298 5296 5294 5292
5566 5560 5554 5548 5543 5537 5531 5524 5516 5507 5499 5491 5483 5474 5467 5460 5452 5444 5438 5431 5422 5412 5404 5394 5384 5375 5368 5361 5353 5346 5337 5329 5324 5319 5311 5309 5302 5295 5291 5287 5285 5284 5282
5559 5552 5546 5541 5535 5529 5523 5517 5509 5500 5491 5484 5475 5467 5459 5451 5443 5436 5429 5420 5411 5402 5394 5385 5376 5368 5359 5351 5342 5334 5327 5320 5314 5306 5297 5295 5292 5286 5283 5278 5275 5274 5272
5550 5544 5538 5532 5526 5520 5515 5509 5501 5491 5483 5475 5467 5459 5451 5443 5437 5430 5421 5412 5403 5393 5384 5375 5367 5358 5350 5341 5332 5323 5314 5306 5302 5296 5288 5281 5280 5276 5274 5270 5267 5265 5263
5541 5535 5528 5523 5518 5512 5507 5501 5494 5484 5475 5466 5458 5450 5443 5436 5429 5422 5412 5402 5392 5384 5375 5366 5356 5347 5338 5328 5319 5310 5300 5292 5286 5282 5278 5270 5266 5262 5264 5264 5260 5257 5256